Canton, GA

8:07 AM EST on December 08, 2019 (GMT -0500)
Canton

Weather History for KCNI - November, 2019

Change the Weather History Date:

Friday, November 15, 2019

  Actual Average (KMGE) Record (KMGE)
Temperature  
Mean Temperature 46 °F -  
Max Temperature 50 °F 59 °F 75 °F (2005)
Min Temperature 41 °F 41 °F 28 °F (2014)
Degree Days  
Heating Degree Days 20    
Moisture  
Dew Point 43 °F    
Average Humidity 93    
Maximum Humidity 100    
Minimum Humidity 66    
Precipitation  
Precipitation 0.00 in - - ()
Sea Level Pressure  
Sea Level Pressure 30.14 in    
Wind  
Wind Speed 0 mph (North)    
Max Wind Speed 0 mph    
Max Gust Speed -    
Visibility 7 miles    
Events Rain    
Averages and records for this station are not official NWS values.
T = Trace of Precipitation, MM = Missing Value Source: NWS Daily Summary

Daily Weather History Graph

Daily Weather History Graph

Search for Another Location

Airport or City:

Astronomy

Nov. 15, 2019 Rise Set
Actual Time 7:10 AM EST 5:33 PM EST
Civil Twilight 6:43 AM EST 6:00 PM EST
Nautical Twilight 6:13 AM EST 6:30 PM EST
Astronomical Twilight 5:43 AM EST 7:00 PM EST
Moon 8:12 PM EST (11/15) 10:01 AM EST (11/15)
Length of Visible Light 11h 16m
Length of Day
10h 23m
Waning Gibbous, 90% of the Moon is Illuminated
Nov 15
Waning Gibbous
Nov 19
Last Quarter
Nov 26
New
Dec 4
First Quarter
Dec 12
Full

Hourly Weather History & Observations

Time (EST) Temp. Dew Point Humidity Pressure Visibility Wind Dir Wind Speed Gust Speed Precip Events Conditions
12:10 AM 41.0 °F 41.0 °F 100% 30.25 in 0.8 mi Calm Calm - N/A Rain Rain
12:30 AM 41.0 °F 41.0 °F 100% 30.23 in 0.8 mi Calm Calm - N/A Rain Rain
12:50 AM 41.0 °F 41.0 °F 100% 30.22 in 0.8 mi Calm Calm - N/A Rain Light Rain
1:10 AM 41.0 °F 41.0 °F 100% 30.22 in 1.0 mi Calm Calm - N/A Rain Rain
1:30 AM 41.0 °F 41.0 °F 100% 30.21 in 1.0 mi Calm Calm - N/A Rain Light Rain
1:50 AM 41.0 °F 41.0 °F 100% 30.21 in 1.0 mi Calm Calm - N/A Rain Rain
2:10 AM 42.8 °F 42.8 °F 100% 30.20 in 4.0 mi Calm Calm - N/A Rain Light Rain
2:30 AM 42.8 °F 42.8 °F 100% 30.20 in 2.5 mi Calm Calm - N/A   Drizzle
2:50 AM 42.8 °F 42.8 °F 100% 30.19 in 3.0 mi Calm Calm - N/A Rain Light Rain
3:10 AM 42.8 °F 42.8 °F 100% 30.18 in 0.5 mi Calm Calm - N/A   Light Drizzle
3:30 AM 42.8 °F 42.8 °F 100% 30.17 in 1.2 mi Calm Calm - N/A Rain Light Rain
3:50 AM 42.8 °F 42.8 °F 100% 30.17 in 5.0 mi Calm Calm - N/A Rain Rain
4:30 AM 42.8 °F 42.8 °F 100% 30.16 in 4.0 mi Calm Calm - N/A Rain Rain
4:50 AM 42.8 °F 42.8 °F 100% 30.16 in 5.0 mi Calm Calm - N/A Rain Light Rain
5:10 AM 42.8 °F 42.8 °F 100% 30.16 in 7.0 mi Calm Calm - N/A   Light Drizzle
5:30 AM 42.8 °F 42.8 °F 100% 30.16 in 4.0 mi Calm Calm - N/A Rain Light Rain
5:50 AM 42.8 °F 42.8 °F 100% 30.15 in 5.0 mi Calm Calm - N/A   Drizzle
6:10 AM 42.8 °F 42.8 °F 100% 30.16 in 4.0 mi Calm Calm - N/A   Light Drizzle
6:30 AM 42.8 °F 42.8 °F 100% 30.16 in 2.5 mi Calm Calm - N/A Rain Light Rain
6:50 AM 42.8 °F 42.8 °F 100% 30.16 in 3.0 mi Calm Calm - N/A   Light Drizzle
7:10 AM 42.8 °F 42.8 °F 100% 30.15 in 3.0 mi Calm Calm - N/A Rain Rain
7:30 AM 42.8 °F 42.8 °F 100% 30.16 in 4.0 mi Calm Calm - N/A Rain Rain
7:50 AM 42.8 °F 42.8 °F 100% 30.17 in 4.0 mi Calm Calm - N/A   Overcast
8:10 AM 42.8 °F 42.8 °F 100% 30.17 in 7.0 mi Calm Calm - N/A   Overcast
8:30 AM 42.8 °F 42.8 °F 100% 30.16 in 7.0 mi Calm Calm - N/A   Drizzle
8:50 AM 42.8 °F 42.8 °F 100% 30.17 in 7.0 mi Calm Calm - N/A Rain Light Rain
9:10 AM 42.8 °F 42.8 °F 100% 30.17 in 7.0 mi Calm Calm - N/A   Drizzle
9:30 AM 44.6 °F 44.6 °F 100% 30.16 in 5.0 mi Calm Calm - N/A Rain Light Rain
9:50 AM 44.6 °F 44.6 °F 100% 30.16 in 4.0 mi Calm Calm - N/A Rain Light Rain
10:30 AM 46.4 °F 46.4 °F 100% 30.17 in 7.0 mi Calm Calm - N/A   Drizzle
10:50 AM 46.4 °F 46.4 °F 100% 30.18 in 5.0 mi Calm Calm - N/A   Drizzle
11:10 AM 48.2 °F 48.2 °F 100% 30.17 in 3.0 mi Calm Calm - N/A Rain Light Rain
11:30 AM 48.2 °F 48.2 °F 100% 30.16 in 5.0 mi Calm Calm - N/A   Light Drizzle
11:50 AM 50.0 °F 50.0 °F 100% 30.15 in 10.0 mi Calm Calm - N/A   Overcast
12:30 PM 50.0 °F 50.0 °F 100% 30.13 in 10.0 mi Calm Calm - N/A   Overcast
12:50 PM 50.0 °F 50.0 °F 100% 30.13 in 10.0 mi Calm Calm - N/A   Overcast
1:10 PM 48.2 °F 46.4 °F 93% 30.12 in 10.0 mi Calm Calm - N/A   Overcast
1:30 PM 46.4 °F 46.4 °F 100% 30.11 in 10.0 mi Calm Calm - N/A   Overcast
1:50 PM 46.4 °F 46.4 °F 100% 30.10 in 10.0 mi Calm Calm - N/A   Light Drizzle
2:10 PM 46.4 °F 46.4 °F 100% 30.10 in 7.0 mi Calm Calm - N/A Rain Light Rain
2:30 PM 46.4 °F 44.6 °F 93% 30.10 in 10.0 mi Calm Calm - N/A   Light Drizzle
3:10 PM 48.2 °F 42.8 °F 82% 30.11 in 10.0 mi Calm Calm - N/A Rain Light Rain
3:30 PM 48.2 °F 42.8 °F 82% 30.11 in 10.0 mi Calm Calm - N/A   Light Drizzle
3:50 PM 50.0 °F 41.0 °F 71% 30.10 in 10.0 mi Calm Calm - N/A   Overcast
4:10 PM 50.0 °F 42.8 °F 76% 30.10 in 10.0 mi Calm Calm - N/A Rain Light Rain
4:30 PM 48.2 °F 42.8 °F 82% 30.10 in 10.0 mi Calm Calm - N/A Rain Light Rain
4:50 PM 48.2 °F 42.8 °F 82% 30.10 in 10.0 mi Calm Calm - N/A Rain Light Rain
5:10 PM 48.2 °F 42.8 °F 82% 30.09 in 10.0 mi Calm Calm - N/A Rain Rain
5:30 PM 46.4 °F 42.8 °F 87% 30.08 in 10.0 mi Calm Calm - N/A Rain Rain
5:50 PM 46.4 °F 42.8 °F 87% 30.08 in 10.0 mi Calm Calm - N/A Rain Rain
6:10 PM 46.4 °F 42.8 °F 87% 30.09 in 10.0 mi Calm Calm - N/A Rain Rain
6:30 PM 46.4 °F 42.8 °F 87% 30.09 in 10.0 mi Calm Calm - N/A   Overcast
6:50 PM 46.4 °F 41.0 °F 81% 30.09 in 10.0 mi Calm Calm - N/A   Overcast
7:10 PM 46.4 °F 37.4 °F 71% 30.09 in 10.0 mi Calm Calm - N/A   Overcast
7:30 PM 44.6 °F 37.4 °F 76% 30.09 in 10.0 mi Calm Calm - N/A Rain Light Rain
7:50 PM 46.4 °F 35.6 °F 66% 30.09 in 10.0 mi Calm Calm - N/A   Mostly Cloudy
8:30 PM 42.8 °F 37.4 °F 81% 30.09 in 10.0 mi Calm Calm - N/A   Scattered Clouds
8:50 PM 44.6 °F 35.6 °F 71% 30.09 in 10.0 mi Calm Calm - N/A   Scattered Clouds
9:10 PM 44.6 °F 37.4 °F 76% 30.10 in 10.0 mi Calm Calm - N/A   Clear
9:30 PM 42.8 °F 41.0 °F 93% 30.10 in 10.0 mi Calm Calm - N/A   Clear
9:50 PM 42.8 °F 41.0 °F 93% 30.11 in 10.0 mi Calm Calm - N/A   Clear
10:10 PM 44.6 °F 42.8 °F 93% 30.11 in 10.0 mi Calm Calm - N/A   Scattered Clouds
11:10 PM 41.0 °F 37.4 °F 87% 30.10 in 10.0 mi Calm Calm - N/A   Clear
11:30 PM 41.0 °F 37.4 °F 87% 30.10 in 10.0 mi Calm Calm - N/A   Clear